ProjectID,Date,Electric Generation,Electric Utility Import,Facility Electric Load
,YYYY-MM-DD,kW,kW,kW
316,2016-02-01,34.91125,,34.91125
316,2016-02-02,53.733666666666664,,53.733666666666664
316,2016-02-03,24.283291666666667,,24.283291666666667
316,2016-02-04,21.00375,,21.00375
316,2016-02-05,7.963291666666667,,7.963291666666667
316,2016-02-06,27.400000000000002,,27.400000000000002
316,2016-02-07,52.99875,,52.99875
316,2016-02-08,29.474041666666665,,29.474041666666665
316,2016-02-09,13.414541666666667,,13.414541666666667
316,2016-02-10,3.2648333333333333,,3.2648333333333333
316,2016-02-11,6.611916666666667,,6.611916666666667
316,2016-02-12,0.551125,,0.551125
316,2016-02-13,0.308625,,0.308625
316,2016-02-14,0.26116666666666666,,0.26116666666666666
316,2016-02-15,0.32579166666666665,,0.32579166666666665
316,2016-02-16,0.3358333333333334,,0.3358333333333334
316,2016-02-17,0.33629166666666666,,0.33629166666666666
316,2016-02-18,0.3312083333333333,,0.3312083333333333
316,2016-02-19,0.33629166666666666,,0.33629166666666666
316,2016-02-20,3.3375,,3.3375
316,2016-02-21,2.173458333333333,,2.173458333333333
316,2016-02-22,5.531291666666667,,5.531291666666667
316,2016-02-23,4.6496249999999995,,4.6496249999999995
316,2016-02-24,1.0222499999999999,,1.0222499999999999
316,2016-02-25,1.163375,,1.163375
316,2016-02-26,3.6483333333333334,,3.6483333333333334
316,2016-02-27,5.004708333333333,,5.004708333333333
316,2016-02-28,6.912958333333333,,6.912958333333333
316,2016-02-29,2.0392083333333333,,2.0392083333333333
316,2016-03-01,3.3812083333333334,,3.3812083333333334
316,2016-03-02,4.4167499999999995,,4.4167499999999995
316,2016-03-03,3.6946250000000003,,3.6946250000000003
316,2016-03-04,5.630041666666667,,5.630041666666667
316,2016-03-05,4.370125,,4.370125
316,2016-03-06,7.637625,,7.637625
316,2016-03-07,5.572583333333333,,5.572583333333333
316,2016-03-08,5.885041666666667,,5.885041666666667
316,2016-03-09,55.01258333333333,,55.01258333333333
316,2016-03-10,9.344958333333333,,9.344958333333333
316,2016-03-11,38.854083333333335,,38.854083333333335
316,2016-03-12,74.82033333333334,,74.82033333333334
316,2016-03-13,39.68145833333333,,39.68145833333333
316,2016-03-14,27.168958333333332,,27.168958333333332
316,2016-03-15,14.298250000000001,,14.298250000000001
316,2016-03-16,30.226249999999997,,30.226249999999997
316,2016-03-17,88.83004166666666,,88.83004166666666
316,2016-03-18,21.713624999999997,,21.713624999999997
316,2016-03-19,103.423625,,103.423625
316,2016-03-20,85.39125,,85.39125
316,2016-03-21,50.92241666666666,,50.92241666666666
316,2016-03-22,45.952416666666664,,45.952416666666664
316,2016-03-23,8.179458333333333,,8.179458333333333
316,2016-03-24,41.137,,41.137
316,2016-03-25,19.920708333333334,,19.920708333333334
316,2016-03-26,99.37195833333334,,99.37195833333334
316,2016-03-27,91.69824999999999,,91.69824999999999
316,2016-03-28,11.089500000000001,,11.089500000000001
316,2016-03-29,114.68662499999999,,114.68662499999999
316,2016-03-30,98.242375,,98.242375
316,2016-03-31,13.9705,,13.9705
316,2016-04-01,47.533625,,47.533625
316,2016-04-02,68.69033333333333,,68.69033333333333
316,2016-04-03,5.795875,,5.795875
316,2016-04-04,1.203625,,1.203625
316,2016-04-05,16.374458333333333,,16.374458333333333
316,2016-04-06,19.403791666666667,,19.403791666666667
316,2016-04-07,38.82904166666667,,38.82904166666667
316,2016-04-08,48.72133333333333,,48.72133333333333
316,2016-04-09,91.22941666666667,,91.22941666666667
316,2016-04-10,56.94225,,56.94225
316,2016-04-11,12.180333333333332,,12.180333333333332
316,2016-04-12,58.250791666666665,,58.250791666666665
316,2016-04-13,103.21991666666666,,103.21991666666666
316,2016-04-14,123.86325,,123.86325
316,2016-04-15,120.28345833333333,,120.28345833333333
316,2016-04-16,118.63495833333333,,118.63495833333333
316,2016-04-17,120.03616666666666,,120.03616666666666
316,2016-04-18,117.15058333333333,,117.15058333333333
316,2016-04-19,109.64420833333332,,109.64420833333332
316,2016-04-20,124.00487500000001,,124.00487500000001
316,2016-04-21,53.85154166666666,,53.85154166666666
316,2016-04-22,88.50491666666666,,88.50491666666666
316,2016-04-23,117.23216666666667,,117.23216666666667
316,2016-04-24,104.24745833333333,,104.24745833333333
316,2016-04-25,60.643499999999996,,60.643499999999996
316,2016-04-26,31.453458333333334,,31.453458333333334
316,2016-04-27,127.87075,,127.87075
316,2016-04-28,62.08891666666667,,62.08891666666667
316,2016-04-29,42.7295,,42.7295
316,2016-04-30,84.565,,84.565
316,2016-05-01,19.758166666666668,,19.758166666666668
316,2016-05-02,35.43225,,35.43225
316,2016-05-03,100.03808333333335,,100.03808333333335
316,2016-05-04,72.99291666666666,,72.99291666666666
316,2016-05-05,70.45345833333333,,70.45345833333333
316,2016-05-06,95.978875,,95.978875
316,2016-05-07,91.9905,,91.9905
316,2016-05-08,104.118125,,104.118125
316,2016-05-09,127.41725000000001,,127.41725000000001
316,2016-05-10,96.38733333333333,,96.38733333333333
316,2016-05-11,118.072625,,118.072625
316,2016-05-12,110.18395833333334,,110.18395833333334
316,2016-05-13,84.39466666666667,,84.39466666666667
316,2016-05-14,46.683875,,46.683875
316,2016-05-15,60.56370833333333,,60.56370833333333
316,2016-05-16,125.877,,125.877
316,2016-05-17,79.597375,,79.597375
316,2016-05-18,113.72949999999999,,113.72949999999999
316,2016-05-19,119.027,,119.027
316,2016-05-20,123.36729166666667,,123.36729166666667
316,2016-05-21,45.13025,,45.13025
316,2016-05-22,105.63291666666667,,105.63291666666667
316,2016-05-23,124.54695833333334,,124.54695833333334
316,2016-05-24,127.64791666666667,,127.64791666666667
316,2016-05-25,118.25533333333334,,118.25533333333334
316,2016-05-26,94.20133333333332,,94.20133333333332
316,2016-05-27,109.10225000000001,,109.10225000000001
316,2016-05-28,111.33020833333335,,111.33020833333335
316,2016-05-29,79.28725,,79.28725
316,2016-05-30,123.53724999999999,,123.53724999999999
316,2016-05-31,120.26645833333333,,120.26645833333333
316,2016-06-01,124.00595833333334,,124.00595833333334
316,2016-06-02,80.71891666666666,,80.71891666666666
316,2016-06-03,127.77225,,127.77225
316,2016-06-04,116.483875,,116.483875
316,2016-06-05,50.16616666666667,,50.16616666666667
316,2016-06-06,129.04695833333332,,129.04695833333332
316,2016-06-07,68.873875,,68.873875
316,2016-06-08,48.698708333333336,,48.698708333333336
316,2016-06-09,121.35429166666667,,121.35429166666667
316,2016-06-10,124.8875,,124.8875
316,2016-06-11,105.74816666666668,,105.74816666666668
316,2016-06-12,102.91683333333333,,102.91683333333333
316,2016-06-13,51.38095833333333,,51.38095833333333
316,2016-06-14,131.07037499999998,,131.07037499999998
316,2016-06-15,95.21041666666667,,95.21041666666667
316,2016-06-16,86.30804166666667,,86.30804166666667
316,2016-06-17,130.44816666666665,,130.44816666666665
316,2016-06-18,120.44275,,120.44275
316,2016-06-19,120.49816666666668,,120.49816666666668
316,2016-06-20,110.87320833333332,,110.87320833333332
316,2016-06-21,132.09900000000002,,132.09900000000002
316,2016-06-22,124.96295833333333,,124.96295833333333
316,2016-06-23,94.59775,,94.59775
316,2016-06-24,129.037875,,129.037875
316,2016-06-25,126.23241666666667,,126.23241666666667
316,2016-06-26,113.01125,,113.01125
316,2016-06-27,113.9345,,113.9345
316,2016-06-28,95.15370833333333,,95.15370833333333
316,2016-06-29,97.08616666666667,,97.08616666666667
316,2016-06-30,125.26704166666667,,125.26704166666667
316,2016-07-01,61.351625000000006,,61.351625000000006
316,2016-07-02,111.57945833333333,,111.57945833333333
316,2016-07-03,124.69866666666667,,124.69866666666667
316,2016-07-04,113.58220833333333,,113.58220833333333
316,2016-07-05,116.9545,,116.9545
316,2016-07-06,122.17195833333334,,122.17195833333334
316,2016-07-07,107.08270833333334,,107.08270833333334
316,2016-07-08,81.13033333333333,,81.13033333333333
316,2016-07-09,95.20916666666666,,95.20916666666666
316,2016-07-10,115.05616666666667,,115.05616666666667
316,2016-07-11,93.93504166666666,,93.93504166666666
316,2016-07-12,110.147375,,110.147375
316,2016-07-13,116.08483333333334,,116.08483333333334
316,2016-07-14,83.91958333333334,,83.91958333333334
316,2016-07-15,116.64337499999999,,116.64337499999999
316,2016-07-16,105.69816666666667,,105.69816666666667
316,2016-07-17,115.6355,,115.6355
316,2016-07-18,87.32433333333334,,87.32433333333334
316,2016-07-19,93.21233333333333,,93.21233333333333
316,2016-07-20,121.40504166666666,,121.40504166666666
316,2016-07-21,116.11870833333334,,116.11870833333334
316,2016-07-22,75.77491666666667,,75.77491666666667
316,2016-07-23,120.328375,,120.328375
316,2016-07-24,73.70983333333334,,73.70983333333334
316,2016-07-25,39.90895833333334,,39.90895833333334
316,2016-07-26,113.412875,,113.412875
316,2016-07-27,120.36475,,120.36475
316,2016-07-28,68.28654166666666,,68.28654166666666
316,2016-07-29,96.65116666666667,,96.65116666666667
316,2016-07-30,84.66295833333334,,84.66295833333334
316,2016-07-31,91.37379166666666,,91.37379166666666
316,2016-08-01,78.31916666666667,,78.31916666666667
316,2016-08-02,110.01975,,110.01975
316,2016-08-03,120.66820833333333,,120.66820833333333
316,2016-08-04,117.54183333333333,,117.54183333333333
316,2016-08-05,88.74366666666667,,88.74366666666667
316,2016-08-06,89.07962500000001,,89.07962500000001
316,2016-08-07,96.660375,,96.660375
316,2016-08-08,117.94283333333334,,117.94283333333334
316,2016-08-09,109.25791666666667,,109.25791666666667
316,2016-08-10,104.24495833333333,,104.24495833333333
316,2016-08-11,98.00925000000001,,98.00925000000001
316,2016-08-12,91.03925,,91.03925
316,2016-08-13,49.09529166666667,,49.09529166666667
316,2016-08-14,67.57433333333334,,67.57433333333334
316,2016-08-15,65.30479166666667,,65.30479166666667
316,2016-08-16,44.76708333333334,,44.76708333333334
316,2016-08-17,95.75541666666668,,95.75541666666668
316,2016-08-18,75.06391666666667,,75.06391666666667
316,2016-08-19,105.22654166666666,,105.22654166666666
316,2016-08-20,104.85941666666668,,104.85941666666668
316,2016-08-21,65.34516666666667,,65.34516666666667
316,2016-08-22,104.11091666666665,,104.11091666666665
316,2016-08-23,109.62254166666666,,109.62254166666666
316,2016-08-24,109.43374999999999,,109.43374999999999
316,2016-08-25,72.7045,,72.7045
316,2016-08-26,107.39858333333332,,107.39858333333332
316,2016-08-27,106.07170833333333,,106.07170833333333
316,2016-08-28,96.481875,,96.481875
316,2016-08-29,101.76183333333334,,101.76183333333334
316,2016-08-30,98.68633333333334,,98.68633333333334
316,2016-08-31,62.16545833333333,,62.16545833333333
316,2016-09-01,87.65625,,87.65625
316,2016-09-02,87.369875,,87.369875
316,2016-09-03,107.22154166666667,,107.22154166666667
316,2016-09-04,105.66933333333333,,105.66933333333333
316,2016-09-05,103.380375,,103.380375
316,2016-09-06,92.03004166666666,,92.03004166666666
316,2016-09-07,84.31245833333334,,84.31245833333334
316,2016-09-08,61.40904166666667,,61.40904166666667
316,2016-09-09,80.33079166666667,,80.33079166666667
316,2016-09-10,57.148500000000006,,57.148500000000006
316,2016-09-11,94.53645833333333,,94.53645833333333
316,2016-09-12,96.76575000000001,,96.76575000000001
316,2016-09-13,101.7865,,101.7865
316,2016-09-14,73.29054166666667,,73.29054166666667
316,2016-09-15,104.051,,104.051
316,2016-09-16,96.74091666666668,,96.74091666666668
316,2016-09-17,37.013083333333334,,37.013083333333334
316,2016-09-18,59.68895833333334,,59.68895833333334
316,2016-09-19,95.44279166666666,,95.44279166666666
316,2016-09-20,93.06920833333334,,93.06920833333334
316,2016-09-21,88.98316666666666,,88.98316666666666
316,2016-09-22,90.43116666666667,,90.43116666666667
316,2016-09-23,27.52616666666667,,27.52616666666667
316,2016-09-24,83.504,,83.504
316,2016-09-25,98.80883333333333,,98.80883333333333
316,2016-09-26,35.852916666666665,,35.852916666666665
316,2016-09-27,85.52504166666667,,85.52504166666667
316,2016-09-28,84.90766666666667,,84.90766666666667
316,2016-09-29,22.313833333333335,,22.313833333333335
316,2016-09-30,50.464875,,50.464875
316,2016-10-01,35.188916666666664,,35.188916666666664
316,2016-10-02,38.87383333333333,,38.87383333333333
316,2016-10-03,51.57820833333333,,51.57820833333333
316,2016-10-04,89.81925,,89.81925
316,2016-10-05,82.85166666666667,,82.85166666666667
316,2016-10-06,74.35566666666666,,74.35566666666666
316,2016-10-07,85.84387500000001,,85.84387500000001
316,2016-10-08,43.054916666666664,,43.054916666666664
316,2016-10-09,41.45079166666667,,41.45079166666667
316,2016-10-10,90.99370833333334,,90.99370833333334
316,2016-10-11,56.53658333333333,,56.53658333333333
316,2016-10-12,82.38683333333334,,82.38683333333334
316,2016-10-13,52.87129166666667,,52.87129166666667
316,2016-10-14,86.484625,,86.484625
316,2016-10-15,82.32183333333333,,82.32183333333333
316,2016-10-16,38.05616666666666,,38.05616666666666
316,2016-10-17,27.4025,,27.4025
316,2016-10-18,32.574333333333335,,32.574333333333335
316,2016-10-19,76.25283333333333,,76.25283333333333
316,2016-10-20,5.2995833333333335,,5.2995833333333335
316,2016-10-21,5.229375,,5.229375
316,2016-10-22,18.652541666666668,,18.652541666666668
316,2016-10-23,55.51191666666667,,55.51191666666667
316,2016-10-24,26.028750000000002,,26.028750000000002
316,2016-10-25,43.367333333333335,,43.367333333333335
316,2016-10-26,46.713625,,46.713625
316,2016-10-27,4.221416666666666,,4.221416666666666
316,2016-10-28,59.274875,,59.274875
316,2016-10-29,6.6706666666666665,,6.6706666666666665
316,2016-10-30,8.636916666666666,,8.636916666666666
316,2016-10-31,60.270916666666665,,60.270916666666665
316,2016-11-01,54.71491666666666,,54.71491666666666
316,2016-11-02,27.622500000000002,,27.622500000000002
316,2016-11-03,14.746166666666667,,14.746166666666667
316,2016-11-04,49.11333333333334,,49.11333333333334
316,2016-11-05,35.360791666666664,,35.360791666666664
316,2016-11-06,65.20975,,65.20975
316,2016-11-07,67.05870833333334,,67.05870833333334
316,2016-11-08,40.452,,40.452
316,2016-11-09,13.341166666666666,,13.341166666666666
316,2016-11-10,50.70191666666667,,50.70191666666667
316,2016-11-11,37.35041666666667,,37.35041666666667
316,2016-11-12,61.739625,,61.739625
316,2016-11-13,32.20458333333333,,32.20458333333333
316,2016-11-14,61.04445833333333,,61.04445833333333
316,2016-11-15,61.692874999999994,,61.692874999999994
316,2016-11-16,7.735833333333333,,7.735833333333333
316,2016-11-17,55.393375,,55.393375
316,2016-11-18,54.640791666666665,,54.640791666666665
316,2016-11-19,6.862166666666667,,6.862166666666667
316,2016-11-20,0.5040833333333333,,0.5040833333333333
316,2016-11-21,4.019708333333333,,4.019708333333333
316,2016-11-22,18.918083333333332,,18.918083333333332
316,2016-11-23,35.44020833333334,,35.44020833333334
316,2016-11-24,4.162916666666667,,4.162916666666667
316,2016-11-25,12.531416666666667,,12.531416666666667
316,2016-11-26,10.583499999999999,,10.583499999999999
316,2016-11-27,42.85425,,42.85425
316,2016-11-28,46.183625,,46.183625
316,2016-11-29,23.22791666666667,,23.22791666666667
316,2016-11-30,14.069208333333334,,14.069208333333334
316,2016-12-01,5.8595,,5.8595
316,2016-12-02,25.31658333333333,,25.31658333333333
316,2016-12-03,15.877666666666668,,15.877666666666668
316,2016-12-04,22.88291666666667,,22.88291666666667
316,2016-12-05,10.286624999999999,,10.286624999999999
316,2016-12-06,16.381541666666667,,16.381541666666667
316,2016-12-07,17.985791666666668,,17.985791666666668
316,2016-12-08,16.355666666666668,,16.355666666666668
316,2016-12-09,29.99229166666667,,29.99229166666667
316,2016-12-10,23.734375,,23.734375
316,2016-12-11,2.8490416666666665,,2.8490416666666665
316,2016-12-12,1.1302916666666667,,1.1302916666666667
316,2016-12-13,4.431166666666667,,4.431166666666667
316,2016-12-14,3.086,,3.086
316,2016-12-15,2.144625,,2.144625
316,2016-12-16,1.7735833333333335,,1.7735833333333335
316,2016-12-17,0.30616666666666664,,0.30616666666666664
316,2016-12-18,1.9989583333333334,,1.9989583333333334
316,2016-12-19,2.1707916666666667,,2.1707916666666667
316,2016-12-20,2.181208333333333,,2.181208333333333
316,2016-12-21,1.4741666666666668,,1.4741666666666668
316,2016-12-22,0.306375,,0.306375
316,2016-12-23,2.6252916666666666,,2.6252916666666666
316,2016-12-24,4.803708333333334,,4.803708333333334
316,2016-12-25,11.803666666666667,,11.803666666666667
316,2016-12-26,13.864791666666667,,13.864791666666667
316,2016-12-27,9.795666666666667,,9.795666666666667
316,2016-12-28,16.747458333333334,,16.747458333333334
316,2016-12-29,1.2487916666666667,,1.2487916666666667
316,2016-12-30,2.894625,,2.894625
316,2016-12-31,18.444041666666667,,18.444041666666667
316,2017-01-01,35.04575,,35.04575
316,2017-01-02,6.485916666666667,,6.485916666666667
316,2017-01-03,4.436375,,4.436375
316,2017-01-04,18.312625,,18.312625
316,2017-01-05,13.506541666666665,,13.506541666666665
316,2017-01-06,0.3933333333333333,,0.3933333333333333
316,2017-01-07,0.599125,,0.599125
316,2017-01-08,0.4871666666666667,,0.4871666666666667
316,2017-01-09,0.7514166666666666,,0.7514166666666666
316,2017-01-10,0.2618333333333333,,0.2618333333333333
316,2017-01-11,40.985708333333335,,40.985708333333335
316,2017-01-12,4.52475,,4.52475
316,2017-01-13,46.54170833333333,,46.54170833333333
316,2017-01-14,13.315208333333333,,13.315208333333333
316,2017-01-15,22.951916666666666,,22.951916666666666
316,2017-01-16,38.321625000000004,,38.321625000000004
316,2017-01-17,3.442833333333333,,3.442833333333333
316,2017-01-18,6.3477500000000004,,6.3477500000000004
316,2017-01-19,6.780125000000001,,6.780125000000001
316,2017-01-20,13.735708333333333,,13.735708333333333
316,2017-01-21,30.957083333333333,,30.957083333333333
316,2017-01-22,11.019625,,11.019625
316,2017-01-23,22.501375,,22.501375
316,2017-01-24,1.0144583333333335,,1.0144583333333335
316,2017-01-25,11.752791666666667,,11.752791666666667
316,2017-01-26,8.044500000000001,,8.044500000000001
316,2017-01-27,18.0105,,18.0105
316,2017-01-28,3.16025,,3.16025
316,2017-01-29,0.29704166666666665,,0.29704166666666665
316,2017-01-30,0.239625,,0.239625
316,2017-01-31,0.26058333333333333,,0.26058333333333333
316,2017-02-01,1.4208333333333334,,1.4208333333333334
316,2017-02-02,0.614875,,0.614875
316,2017-02-03,0.6355833333333333,,0.6355833333333333
316,2017-02-04,2.230625,,2.230625
316,2017-02-05,1.0157916666666666,,1.0157916666666666
316,2017-02-06,9.176041666666666,,9.176041666666666
316,2017-02-07,3.8999583333333336,,3.8999583333333336
316,2017-02-08,23.230666666666664,,23.230666666666664
316,2017-02-09,37.64066666666667,,37.64066666666667
316,2017-02-10,30.966291666666667,,30.966291666666667
316,2017-02-11,28.971458333333334,,28.971458333333334
316,2017-02-12,8.019541666666667,,8.019541666666667
316,2017-02-13,10.165416666666667,,10.165416666666667
316,2017-02-14,64.96879166666666,,64.96879166666666
316,2017-02-15,16.07945833333333,,16.07945833333333
316,2017-02-16,7.360791666666667,,7.360791666666667
316,2017-02-17,68.75408333333333,,68.75408333333333
316,2017-02-18,80.61754166666667,,80.61754166666667
316,2017-02-19,85.76079166666666,,85.76079166666666
316,2017-02-20,87.06283333333333,,87.06283333333333
316,2017-02-21,31.141000000000002,,31.141000000000002
316,2017-02-22,34.84666666666667,,34.84666666666667
316,2017-02-23,16.109666666666666,,16.109666666666666
316,2017-02-24,49.469,,49.469
316,2017-02-25,23.16433333333333,,23.16433333333333
316,2017-02-26,60.065374999999996,,60.065374999999996
316,2017-02-27,90.85970833333333,,90.85970833333333
316,2017-02-28,34.77641666666667,,34.77641666666667
316,2017-03-01,30.148750000000003,,30.148750000000003
316,2017-03-02,58.396125000000005,,58.396125000000005
316,2017-03-03,51.04720833333334,,51.04720833333334
316,2017-03-04,74.07054166666667,,74.07054166666667
316,2017-03-05,97.10191666666667,,97.10191666666667
316,2017-03-06,48.19295833333334,,48.19295833333334
316,2017-03-07,18.20595833333333,,18.20595833333333
316,2017-03-08,97.57316666666667,,97.57316666666667
316,2017-03-09,39.4065,,39.4065
316,2017-03-10,49.11745833333333,,49.11745833333333
316,2017-03-11,29.359583333333333,,29.359583333333333
316,2017-03-12,33.37008333333333,,33.37008333333333
316,2017-03-13,26.61745833333333,,26.61745833333333
316,2017-03-14,4.4039166666666665,,4.4039166666666665
316,2017-03-15,2.200833333333333,,2.200833333333333
316,2017-03-16,25.370041666666665,,25.370041666666665
316,2017-03-17,58.87008333333333,,58.87008333333333
316,2017-03-18,5.190375,,5.190375
316,2017-03-19,35.682541666666665,,35.682541666666665
316,2017-03-20,30.442958333333333,,30.442958333333333
316,2017-03-21,105.23983333333332,,105.23983333333332
316,2017-03-22,115.08354166666668,,115.08354166666668
316,2017-03-23,109.81020833333334,,109.81020833333334
316,2017-03-24,38.838791666666665,,38.838791666666665
316,2017-03-25,16.932541666666665,,16.932541666666665
316,2017-03-26,60.870125,,60.870125
316,2017-03-27,22.198166666666665,,22.198166666666665
316,2017-03-28,23.28408333333333,,23.28408333333333
316,2017-03-29,84.588875,,84.588875
316,2017-03-30,27.211250000000003,,27.211250000000003
316,2017-03-31,18.575791666666667,,18.575791666666667
316,2017-04-01,21.664375000000003,,21.664375000000003
316,2017-04-02,97.805,,97.805
316,2017-04-03,75.23204166666666,,75.23204166666666
316,2017-04-04,21.008125,,21.008125
316,2017-04-05,71.04979166666666,,71.04979166666666
316,2017-04-06,15.164333333333333,,15.164333333333333
316,2017-04-07,1.77375,,1.77375
316,2017-04-08,80.28416666666666,,80.28416666666666
316,2017-04-09,104.59925,,104.59925
316,2017-04-10,80.84404166666667,,80.84404166666667
316,2017-04-11,31.258125000000003,,31.258125000000003
316,2017-04-12,41.62529166666666,,41.62529166666666
316,2017-04-13,87.72170833333332,,87.72170833333332
316,2017-04-14,117.45083333333334,,117.45083333333334
316,2017-04-15,60.22945833333333,,60.22945833333333
316,2017-04-16,83.18258333333334,,83.18258333333334
316,2017-04-17,120.18,,120.18
316,2017-04-18,123.03675,,123.03675
316,2017-04-19,21.232208333333332,,21.232208333333332
316,2017-04-20,16.810166666666667,,16.810166666666667
316,2017-04-21,39.27625,,39.27625
316,2017-04-22,69.03933333333333,,69.03933333333333
316,2017-04-23,126.33883333333334,,126.33883333333334
316,2017-04-24,124.17479166666668,,124.17479166666668
316,2017-04-25,41.02641666666667,,41.02641666666667
316,2017-04-26,92.74512499999999,,92.74512499999999
316,2017-04-27,93.70341666666667,,93.70341666666667
316,2017-04-28,97.068,,97.068
316,2017-04-29,33.38308333333333,,33.38308333333333
316,2017-04-30,76.693,,76.693
316,2017-05-01,16.776374999999998,,16.776374999999998
316,2017-05-02,46.870000000000005,,46.870000000000005
316,2017-05-03,110.18,,110.18
316,2017-05-04,25.432541666666665,,25.432541666666665
316,2017-05-05,15.609625,,15.609625
316,2017-05-06,23.33883333333333,,23.33883333333333
316,2017-05-07,40.41175,,40.41175
316,2017-05-08,120.19824999999999,,120.19824999999999
316,2017-05-09,116.33095833333334,,116.33095833333334
316,2017-05-10,110.73991666666666,,110.73991666666666
316,2017-05-11,62.41695833333333,,62.41695833333333
316,2017-05-12,69.91166666666668,,69.91166666666668
316,2017-05-13,80.96904166666667,,80.96904166666667
316,2017-05-14,76.49770833333334,,76.49770833333334
316,2017-05-15,132.28154166666667,,132.28154166666667
316,2017-05-16,55.21120833333333,,55.21120833333333
316,2017-05-17,111.01329166666666,,111.01329166666666
316,2017-05-18,118.39866666666667,,118.39866666666667
316,2017-05-19,54.16433333333333,,54.16433333333333
316,2017-05-20,122.752875,,122.752875
316,2017-05-21,32.46120833333333,,32.46120833333333
316,2017-05-22,81.87270833333334,,81.87270833333334
316,2017-05-23,116.65133333333334,,116.65133333333334
316,2017-05-24,93.86491666666666,,93.86491666666666